Regional Weather Roundup
Issued by NWS

Home | Current Version | Previous Version | Graphics & Text | Print | Product List | Glossary On
Versions: 1 2 3 4 5 6 7 8 9 10 11 12 13 14 15 16 17 18 19 20 21 22 23 24 25 26 27 28 29 30 31 32 33 34 35 36 37 38 39 40 41 42 43 44 45 46 47 48 49 50
429
ASUS43 KOAX 180102
RWRNE

WEATHER ROUNDUP FOR NEBRASKA
NATIONAL WEATHER SERVICE OMAHA NE
800 PM CDT THU AUG 17 2017

NOTES: SATELLITE DATA IS BEING USED TO AUGMENT CLOUD COVER ABOVE
       12000 FEET.
       "FAIR" INDICATES FEW OR NO CLOUDS BELOW 12,000 FEET WITH NO
       SIGNIFICANT WEATHER AND/OR OBSTRUCTIONS TO VISIBILITY.


NEZ001>004-019>022-054>056-180200-
NEBRASKA PANHANDLE

CITY           SKY/WX    TMP DP  RH WIND       PRES   REMARKS
SCOTTSBLUFF    CLEAR     82  53  36 S7        29.95S
ALLIANCE       CLEAR     77  54  44 MISG      29.93F
CHADRON        CLOUDY    72  52  49 N21       29.97F
GORDON         CLOUDY    73  52  47 N22G28    29.93R
KIMBALL        PTCLDY    76  50  40 SW7       30.04S
SIDNEY         CLEAR     81  45  28 SW12      30.01F
$$

NEZ057>060-069>072-079>082-180200-
SOUTHWEST NEBRASKA

CITY           SKY/WX    TMP DP  RH WIND       PRES   REMARKS
NORTH PLATTE   CLEAR     81  63  54 S8        29.91F
IMPERIAL       CLOUDY    70  60  70 SE8       29.96F
LEXINGTON      CLOUDY    77  63  61 SE8       29.93F
MCCOOK         CLEAR     81  60  48 S8        29.94F
OGALLALA       CLOUDY    80  57  45 S10G18    29.94S
$$

NEZ005>010-023>029-035>040-094-180200-
NORTH CENTRAL NEBRASKA

CITY           SKY/WX    TMP DP  RH WIND       PRES   REMARKS
VALENTINE      CLEAR     84  51  31 S9        29.85S
AINSWORTH      CLEAR     80  60  50 S9        29.88S
BROKEN BOW     CLEAR     82  57  42 S13       29.92F
O`NEILL        CLEAR     78  63  59 S7        29.89F
ORD            CLEAR     79  58  48 S9        29.89F
THEDFORD       CLEAR     85  57  39 S9        29.91F
$$

NEZ041-046>049-061>064-073>077-083>087-180200-
SOUTH CENTRAL NEBRASKA

CITY           SKY/WX    TMP DP  RH WIND       PRES   REMARKS
GRAND ISLAND   CLEAR     76  67  73 S6        29.94F
AURORA         CLEAR     78  65  64 S3        29.93F
HASTINGS       CLEAR     80  62  54 S5        29.95F
HEBRON         CLEAR     78  67  66 S3        29.94F
HOLDREGE       CLEAR     74  63  67 SE7       29.95F
KEARNEY        CLEAR     74  65  73 S7        29.95F
YORK           CLEAR     75  68  78 CALM      29.93F
$$

NEZ011>018-030>034-042>045-180200-
NORTHEAST NEBRASKA

CITY           SKY/WX    TMP DP  RH WIND       PRES   REMARKS
NORFOLK        CLEAR     75  65  70 SE5       29.90F
ALBION         CLEAR     77  69  75 S5        29.91F
BLAIR          LGT RAIN  76  64  67 CALM      29.91F
COLUMBUS       CLEAR     76  67  73 SE6       29.91F
FREMONT        CLEAR     76  64  66 CALM      29.91F
TEKAMAH        CLEAR     73  67  81 CALM      29.89F
WAYNE          CLEAR     75  69  83 CALM      29.90F
$$

NEZ050>053-065>068-078-088>093-180200-
SOUTHEAST NEBRASKA

CITY           SKY/WX    TMP DP  RH WIND       PRES   REMARKS
LINCOLN        CLEAR     79  64  60 S5        29.92F
OMAHA EPPLEY   CLEAR     76  63  64 NW6       29.90F
BEATRICE       CLEAR     82  63  53 CALM      29.93F
FALLS CITY     CLEAR     78  61  55 NW3       29.91F
NEBRASKA CITY  CLEAR     76  63  63 W3        29.93S
PLATTSMOUTH    CLEAR     75  63  65 CALM      29.92S
$$

NEZ044-045-051>053-067-180200-
OMAHA AREA

CITY           SKY/WX    TMP DP  RH WIND       PRES   REMARKS
OMAHA EPPLEY   CLEAR     76  63  64 NW6       29.90F
BLAIR          LGT RAIN  76  64  67 CALM      29.91F
FREMONT        CLEAR     76  64  66 CALM      29.91F
MILLARD        CLEAR     79  63  57 CALM      29.91F
OFFUTT AFB     CLEAR     79  59  49 W5        29.90S
PLATTSMOUTH    CLEAR     75  63  65 CALM      29.92S
WAHOO          FAIR      78  64  62 CALM      29.91F
$$




USA.gov is the U.S. government's official web portal to all federal, state and local government web resources and services.